Location: Dos Palmas
(32.4468°N, 116.8732°W)
Time: 05:27:14
(UTC+00:00)

Helios 1B rocket - Pass Details

Date: 20 June 2021
Orbit: 573 x 583 km, 98.2° (Epoch: 29 July)

Event Time Altitude Azimuth Distance (km) Brightness Sun altitude
Rises 10:26:51 0° 352° (N) 2,787 6.5 -22.6°
Reaches altitude 10° 10:29:35 10° 332° (NNW) 1,883 5.3 -22.3°
Enters shadow 10:31:40 17° 302° (WNW) 1,496 4.4 -22.0°
